Location: Banff
(51.1670°N, 115.5670°W)
Time: 13:03:32
(UTC-06:00)

Daily predictions for brighter satellites

Satellite Brightness Start Highest point End
(mag) Time Altitude Azimuth Time Altitude Azimuth Time Altitude Azimuth
Meteor 2-2 Rocket 4.4 22:37:34 10° N 22:43:19 69° ENE 22:49:10 10° SSE
Meteor 1-21 Rocket 4.2 22:38:42 10° S 22:44:22 77° E 22:49:58 10° NNE
Okean 3 Rocket 4.0 22:40:06 10° SSW 22:44:36 71° WNW 22:49:05 10° N
MetOp-B 4.5 22:39:49 10° S 22:45:09 70° WSW 22:50:32 10° NNW
USA 234 3.8 22:40:29 10° ENE 22:46:25 36° SE 22:52:20 10° SSW
Meteor 2-10 4.4 22:41:07 10° N 22:46:40 63° ENE 22:52:18 10° SSE
Landsat 7 4.2 22:43:51 10° SE 22:48:29 53° ENE 22:53:08 10° N
Cosmos 2016 Rocket 4.1 22:42:58 10° N 22:49:19 90° ESE 22:55:31 10° S
ERS-1 Rocket 3.8 22:44:37 10° S 22:49:29 49° W 22:54:24 10° NNW
Cosmos 2263 Rocket 3.6 22:47:15 10° SE 22:51:09 20° E 22:55:05 10° NE
Cosmos 1340 Rocket 4.4 22:49:04 10° SW 22:52:52 39° WNW 22:56:45 10° N
CARTOSAT-1 4.3 22:50:07 10° SE 22:54:10 41° ENE 22:58:15 10° N
EO 1 Delta rocket 3.9 22:51:16 10° SSE 22:55:54 76° ENE 23:00:39 10° N
ATLAS 5 CENTAUR R/B 1.8 22:51:47 10° SW 22:56:33 82° SE 23:01:51 10° NE
H-2A R/B 2.2 22:51:50 10° SSE 22:57:12 85° ENE 23:02:41 10° NNW
Cosmos 1766 Rocket 3.5 22:55:16 10° S 22:59:35 86° E 23:03:59 10° N
Cosmos 1328 Rocket 3.5 22:56:45 10° N 23:01:08 81° E 23:05:27 10° SSE
Terra 2.2 22:58:48 10° SE 23:03:25 53° ENE 23:08:04 10° N
Cosmos 1515 Rocket 3.6 23:01:38 10° N 23:05:59 67° ENE 23:10:17 10° SSE
USA 245 4.0 23:02:32 10° S 23:05:59 52° W 23:10:21 10° NNW
Cosmos 332 Rocket 4.2 23:03:44 10° NNW 23:08:36 64° WSW 23:13:27 10° S
Cosmos 2228 Rocket 3.2 23:04:55 10° N 23:09:34 89° E 23:14:08 10° S
Cosmos 1151 Rocket 3.3 23:05:58 10° N 23:10:20 59° ENE 23:14:34 10° SSE
Cosmos 540 Rocket 4.3 23:06:00 10° NNW 23:10:55 42° ENE 23:15:48 10° SE
SL-08 RB Rocket 4.3 23:07:17 10° S 23:11:47 57° W 23:16:22 10° NNW
Cosmos 1603 4.3 23:06:16 10° NW 23:11:48 54° WSW 23:17:15 10° S
Cosmos 1674 4.0 23:09:31 10° SSW 23:13:07 41° WNW 23:16:43 10° N
Cosmos 2233 Rocket 4.1 23:07:56 10° N 23:14:10 66° ENE 23:20:15 10° SSE
Cosmos 1455 3.4 23:10:58 10° N 23:14:27 30° ENE 23:17:40 11° SE
H-2A R/B 2.4 23:11:18 11° SE 23:15:23 52° ENE 23:19:31 10° N
Cosmos 1743 Rocket 3.6 23:11:35 10° S 23:15:50 61° E 23:20:07 10° NNE
ERBS 3.1 23:14:32 10° WNW 23:17:43 38° SW 23:20:28 13° SSE
Cosmos 2084 3.3 23:16:25 10° SW 23:20:20 81° NW 23:24:09 10° NE
Cosmos 1356 4.2 23:18:37 12° SSE 23:21:34 35° E 23:24:49 10° NNE
IGS 5A 3.5 23:17:41 11° SSE 23:21:37 70° ENE 23:25:47 10° N
Cosmos 304 Rocket 4.2 23:17:20 10° NNW 23:22:04 54° ENE 23:26:24 12° SE
Cosmos 2227 Rocket 4.5 23:19:43 10° WSW 23:24:37 29° NW 23:29:33 10° NNE
SL-16 R/B 4.5 23:24:28 10° WNW 23:27:57 17° W 23:31:25 10° SW
Cosmos 1943 3.3 23:22:19 10° NNW 23:27:58 75° WSW 23:33:10 12° SSE
DMSP B5D2-2 4.1 23:23:26 10° NNE 23:28:40 66° ESE 23:33:51 10° S
Spot 4 4.3 23:26:23 12° SE 23:30:42 52° ENE 23:35:26 10° N
ARGOS 4.4 23:26:23 10° SSW 23:31:24 38° W 23:36:26 10° NNW
BREEZE-M DEB (TANK) 2.4 23:30:01 10° WSW 23:32:29 69° S 23:39:57 10° E
Meteor 2-12 Rocket 4.5 23:29:42 10° N 23:35:49 80° ENE 23:41:23 13° SSE
CZ-3B DEB 4.4 23:25:18 10° W 23:36:26 75° N 23:49:39 10° E
SL-19 R/B 4.5 23:42:05 16° SE 23:43:58 37° ENE 23:46:46 10° N
Cosmos 1703 3.5 23:42:24 14° S 23:45:40 55° E 23:49:36 10° NNE
Cosmos 1486 Rocket 4.0 23:42:35 10° SSW 23:47:50 73° ESE 23:53:09 10° NNE
Cosmos 841 Rocket 3.9 23:43:01 10° NNW 23:48:11 58° WSW 23:52:41 13° S
PSLV R/B 2.9 23:46:56 19° SSE 23:48:50 81° ENE 23:51:43 10° NNW
Cosmos 2123 Rocket 4.4 23:42:45 10° SSW 23:48:54 66° WNW 23:55:06 10° N
Cosmos 220 Rocket 4.1 23:45:18 10° SSW 23:49:43 86° WNW 23:54:08 10° NNE
Cosmos 1763 Rocket 4.3 23:45:44 10° NW 23:50:35 44° WSW 23:55:04 12° S
Tiangong 1 3.0 23:56:40 10° SW 23:57:26 12° SSW 23:57:26 12° SSW
